Year,Month,Day,Hour,Minute,Value (Times are PST for temperature in C)
2017,06,04,00,00,10.20
2017,06,04,00,01,10.20
2017,06,04,00,02,10.20
2017,06,04,00,03,10.20
2017,06,04,00,04,10.20
2017,06,04,00,05,10.10
2017,06,04,00,06,10.10
2017,06,04,00,07,10.10
2017,06,04,00,08,10.00
2017,06,04,00,09,10.00
2017,06,04,00,10,9.90
2017,06,04,00,11,9.90
2017,06,04,00,12,9.90
2017,06,04,00,13,9.90
2017,06,04,00,14,9.80
2017,06,04,00,15,9.80
2017,06,04,00,16,9.80
2017,06,04,00,17,9.70
2017,06,04,00,18,9.70
2017,06,04,00,19,9.60
2017,06,04,00,20,9.60
2017,06,04,00,21,9.60
2017,06,04,00,22,9.50
2017,06,04,00,23,9.50
2017,06,04,00,24,9.40
2017,06,04,00,25,9.40
2017,06,04,00,26,9.40
2017,06,04,00,27,9.40
2017,06,04,00,28,9.40
2017,06,04,00,29,9.40
2017,06,04,00,30,9.40
2017,06,04,00,31,9.40
2017,06,04,00,32,9.40
2017,06,04,00,33,9.30
2017,06,04,00,34,9.30
2017,06,04,00,35,9.30
2017,06,04,00,36,9.30
2017,06,04,00,37,9.30
2017,06,04,00,38,9.30
2017,06,04,00,39,9.30
2017,06,04,00,40,9.30
2017,06,04,00,41,9.30
2017,06,04,00,42,9.30
2017,06,04,00,43,9.30
2017,06,04,00,44,9.30
2017,06,04,00,45,9.30
2017,06,04,00,46,9.20
2017,06,04,00,47,9.20
2017,06,04,00,48,9.20
2017,06,04,00,49,9.20
2017,06,04,00,50,9.20
2017,06,04,00,51,9.20
2017,06,04,00,52,9.20
2017,06,04,00,53,9.10
2017,06,04,00,54,9.10
2017,06,04,00,55,9.10
2017,06,04,00,56,9.10
2017,06,04,00,57,9.10
2017,06,04,00,58,9.10
2017,06,04,00,59,9.00
2017,06,04,01,00,9.00
2017,06,04,01,01,9.00
2017,06,04,01,02,8.90
2017,06,04,01,03,8.90
2017,06,04,01,04,8.90
2017,06,04,01,05,8.90
2017,06,04,01,06,8.90
2017,06,04,01,07,8.90
2017,06,04,01,08,8.90
2017,06,04,01,09,8.80
2017,06,04,01,10,8.80
2017,06,04,01,11,8.80
2017,06,04,01,12,8.80
2017,06,04,01,13,8.80
2017,06,04,01,14,8.80
2017,06,04,01,15,8.80
2017,06,04,01,16,8.80
2017,06,04,01,17,8.80
2017,06,04,01,18,8.80
2017,06,04,01,19,8.70
2017,06,04,01,20,8.70
2017,06,04,01,21,8.70
2017,06,04,01,22,8.70
2017,06,04,01,23,8.70
2017,06,04,01,24,8.70
2017,06,04,01,25,8.70
2017,06,04,01,26,8.60
2017,06,04,01,27,8.60
2017,06,04,01,28,8.70
2017,06,04,01,29,8.70
2017,06,04,01,30,8.70
2017,06,04,01,31,8.70
2017,06,04,01,32,8.80
2017,06,04,01,33,8.80
2017,06,04,01,34,8.80
2017,06,04,01,35,8.80
2017,06,04,01,36,8.80
2017,06,04,01,37,8.80
2017,06,04,01,38,8.80
2017,06,04,01,39,8.80
2017,06,04,01,40,8.80
2017,06,04,01,41,8.80
2017,06,04,01,42,8.80
2017,06,04,01,43,8.80
2017,06,04,01,44,8.80
2017,06,04,01,45,8.80
2017,06,04,01,46,8.80
2017,06,04,01,47,8.80
2017,06,04,01,48,8.80
2017,06,04,01,49,8.80
2017,06,04,01,50,8.80
2017,06,04,01,51,8.80
2017,06,04,01,52,8.80
2017,06,04,01,53,8.80
2017,06,04,01,54,8.80
2017,06,04,01,55,8.80
2017,06,04,01,56,8.70
2017,06,04,01,57,8.70
2017,06,04,01,58,8.70
2017,06,04,01,59,8.70
2017,06,04,02,00,8.70
2017,06,04,02,01,8.70
2017,06,04,02,02,8.80
2017,06,04,02,03,8.80
2017,06,04,02,04,8.90
2017,06,04,02,05,8.90
2017,06,04,02,06,8.90
2017,06,04,02,07,8.90
2017,06,04,02,08,8.90
2017,06,04,02,09,8.90
2017,06,04,02,10,8.90
2017,06,04,02,11,8.90
2017,06,04,02,12,8.90
2017,06,04,02,13,9.00
2017,06,04,02,14,9.00
2017,06,04,02,15,9.10
2017,06,04,02,16,9.20
2017,06,04,02,17,9.30
2017,06,04,02,18,9.30
2017,06,04,02,19,9.30
2017,06,04,02,20,9.40
2017,06,04,02,21,9.40
2017,06,04,02,22,9.40
2017,06,04,02,23,9.40
2017,06,04,02,24,9.40
2017,06,04,02,25,9.40
2017,06,04,02,26,9.40
2017,06,04,02,27,9.40
2017,06,04,02,28,9.30
2017,06,04,02,29,9.30
2017,06,04,02,30,9.30
2017,06,04,02,31,9.20
2017,06,04,02,32,9.20
2017,06,04,02,33,9.20
2017,06,04,02,34,9.20
2017,06,04,02,35,9.20
2017,06,04,02,36,9.20
2017,06,04,02,37,9.10
2017,06,04,02,38,9.10
2017,06,04,02,39,9.10
2017,06,04,02,40,9.10
2017,06,04,02,41,9.00
2017,06,04,02,42,9.00
2017,06,04,02,43,9.00
2017,06,04,02,44,8.90
2017,06,04,02,45,8.90
2017,06,04,02,46,8.90
2017,06,04,02,47,8.90
2017,06,04,02,48,8.90
2017,06,04,02,49,8.80
2017,06,04,02,50,8.80
2017,06,04,02,51,8.80
2017,06,04,02,52,8.80
2017,06,04,02,53,8.70
2017,06,04,02,54,8.70
2017,06,04,02,55,8.70
2017,06,04,02,56,8.70
2017,06,04,02,57,8.60
2017,06,04,02,58,8.60
2017,06,04,02,59,8.60
2017,06,04,03,00,8.60
2017,06,04,03,01,8.70
2017,06,04,03,02,8.70
2017,06,04,03,03,8.70
2017,06,04,03,04,8.70
2017,06,04,03,05,8.70
2017,06,04,03,06,8.70
2017,06,04,03,07,8.70
2017,06,04,03,08,8.70
2017,06,04,03,09,8.70
2017,06,04,03,10,8.70
2017,06,04,03,11,8.70
2017,06,04,03,12,8.80
2017,06,04,03,13,8.80
2017,06,04,03,14,8.80
2017,06,04,03,15,8.80
2017,06,04,03,16,8.80
2017,06,04,03,17,8.80
2017,06,04,03,18,8.80
2017,06,04,03,19,8.80
2017,06,04,03,20,8.80
2017,06,04,03,21,8.80
2017,06,04,03,22,8.80
2017,06,04,03,23,8.80
2017,06,04,03,24,8.80
2017,06,04,03,25,8.80
2017,06,04,03,26,8.80
2017,06,04,03,27,8.90
2017,06,04,03,28,8.90
2017,06,04,03,29,8.90
2017,06,04,03,30,8.90
2017,06,04,03,31,8.90
2017,06,04,03,32,8.90
2017,06,04,03,33,8.90
2017,06,04,03,34,9.00
2017,06,04,03,35,9.00
2017,06,04,03,36,9.00
2017,06,04,03,37,9.10
2017,06,04,03,38,9.10
2017,06,04,03,39,9.10
2017,06,04,03,40,9.10
2017,06,04,03,41,9.10
2017,06,04,03,42,9.20
2017,06,04,03,43,9.30
2017,06,04,03,44,9.30
2017,06,04,03,45,9.40
2017,06,04,03,46,9.40
2017,06,04,03,47,9.40
2017,06,04,03,48,9.50
2017,06,04,03,49,9.50
2017,06,04,03,50,9.60
2017,06,04,03,51,9.60
2017,06,04,03,52,9.60
2017,06,04,03,53,9.60
2017,06,04,03,54,9.70
2017,06,04,03,55,9.60
2017,06,04,03,56,9.70
2017,06,04,03,57,9.70
2017,06,04,03,58,9.70
2017,06,04,03,59,9.80
2017,06,04,04,00,9.80
2017,06,04,04,01,9.80
2017,06,04,04,02,9.80
2017,06,04,04,03,9.80
2017,06,04,04,04,9.90
2017,06,04,04,05,10.10
2017,06,04,04,06,10.30
2017,06,04,04,07,10.40
2017,06,04,04,08,10.40
2017,06,04,04,09,10.40
2017,06,04,04,10,10.40
2017,06,04,04,11,10.30
2017,06,04,04,12,10.30
2017,06,04,04,13,10.30
2017,06,04,04,14,10.40
2017,06,04,04,15,10.50
2017,06,04,04,16,10.50
2017,06,04,04,17,10.40
2017,06,04,04,18,10.40
2017,06,04,04,19,10.40
2017,06,04,04,20,10.50
2017,06,04,04,21,10.50
2017,06,04,04,22,10.50
2017,06,04,04,23,10.50
2017,06,04,04,24,10.60
2017,06,04,04,25,10.70
2017,06,04,04,26,10.70
2017,06,04,04,27,10.70
2017,06,04,04,28,10.70
2017,06,04,04,29,10.70
2017,06,04,04,30,10.80
2017,06,04,04,31,10.70
2017,06,04,04,32,10.70
2017,06,04,04,33,10.60
2017,06,04,04,34,10.60
2017,06,04,04,35,10.50
2017,06,04,04,36,10.50
2017,06,04,04,37,10.40
2017,06,04,04,38,10.30
2017,06,04,04,39,10.20
2017,06,04,04,40,10.20
2017,06,04,04,41,10.10
2017,06,04,04,42,10.10
2017,06,04,04,43,10.00
2017,06,04,04,44,10.00
2017,06,04,04,45,9.90
2017,06,04,04,46,9.90
2017,06,04,04,47,9.80
2017,06,04,04,48,9.80
2017,06,04,04,49,9.70
2017,06,04,04,50,9.60
2017,06,04,04,51,9.60
2017,06,04,04,52,9.50
2017,06,04,04,53,9.50
2017,06,04,04,54,9.40
2017,06,04,04,55,9.40
2017,06,04,04,56,9.30
2017,06,04,04,57,9.30
2017,06,04,04,58,9.30
2017,06,04,04,59,9.20
2017,06,04,05,00,9.20
2017,06,04,05,01,9.20
2017,06,04,05,02,9.20
2017,06,04,05,03,9.20
2017,06,04,05,04,9.20
2017,06,04,05,05,9.10
2017,06,04,05,06,9.10
2017,06,04,05,07,9.10
2017,06,04,05,08,9.10
2017,06,04,05,09,9.10
2017,06,04,05,10,9.10
2017,06,04,05,11,9.10
2017,06,04,05,12,9.10
2017,06,04,05,13,9.10
2017,06,04,05,14,9.10
2017,06,04,05,15,9.00
2017,06,04,05,16,9.00
2017,06,04,05,17,9.00
2017,06,04,05,18,9.00
2017,06,04,05,19,9.00
2017,06,04,05,20,9.10
2017,06,04,05,21,9.20
2017,06,04,05,22,9.30
2017,06,04,05,23,9.30
2017,06,04,05,24,9.30
2017,06,04,05,25,9.30
2017,06,04,05,26,9.30
2017,06,04,05,27,9.40
2017,06,04,05,28,9.40
2017,06,04,05,29,9.50
2017,06,04,05,30,9.50
2017,06,04,05,31,9.40
2017,06,04,05,32,9.40
2017,06,04,05,33,9.40
2017,06,04,05,34,9.40
2017,06,04,05,35,9.40
2017,06,04,05,36,9.30
2017,06,04,05,37,9.30
2017,06,04,05,38,9.30
2017,06,04,05,39,9.30
2017,06,04,05,40,9.30
2017,06,04,05,41,9.30
2017,06,04,05,42,9.30
2017,06,04,05,43,9.40
2017,06,04,05,44,9.40
2017,06,04,05,45,9.40
2017,06,04,05,46,9.30
2017,06,04,05,47,9.30
2017,06,04,05,48,9.30
2017,06,04,05,49,9.30
2017,06,04,05,50,9.30
2017,06,04,05,51,9.20
2017,06,04,05,52,9.20
2017,06,04,05,53,9.20
2017,06,04,05,54,9.10
2017,06,04,05,55,9.10
2017,06,04,05,56,9.00
2017,06,04,05,57,9.00
2017,06,04,05,58,9.00
2017,06,04,05,59,8.90
2017,06,04,06,00,8.90
2017,06,04,06,01,8.90
2017,06,04,06,02,8.90
2017,06,04,06,03,8.90
2017,06,04,06,04,8.80
2017,06,04,06,05,8.80
2017,06,04,06,06,8.80
2017,06,04,06,07,8.80
2017,06,04,06,08,8.80
2017,06,04,06,09,8.80
2017,06,04,06,10,8.80
2017,06,04,06,11,8.80
2017,06,04,06,12,8.70
2017,06,04,06,13,8.70
2017,06,04,06,14,8.70
2017,06,04,06,15,8.70
2017,06,04,06,16,8.70
2017,06,04,06,17,8.70
2017,06,04,06,18,8.70
2017,06,04,06,19,8.70
2017,06,04,06,20,8.70
2017,06,04,06,21,8.80
2017,06,04,06,22,8.80
2017,06,04,06,23,8.80
2017,06,04,06,24,8.80
2017,06,04,06,25,8.90
2017,06,04,06,26,8.90
2017,06,04,06,27,8.90
2017,06,04,06,28,9.00
2017,06,04,06,29,9.00
2017,06,04,06,30,9.00
2017,06,04,06,31,9.00
2017,06,04,06,32,9.00
2017,06,04,06,33,9.00
2017,06,04,06,34,9.00
2017,06,04,06,35,9.10
2017,06,04,06,36,9.10
2017,06,04,06,37,9.10
2017,06,04,06,38,9.10
2017,06,04,06,39,9.10
2017,06,04,06,40,9.10
2017,06,04,06,41,9.10
2017,06,04,06,42,9.10
2017,06,04,06,43,9.10
2017,06,04,06,44,9.10
2017,06,04,06,45,9.20
2017,06,04,06,46,9.20
2017,06,04,06,47,9.20
2017,06,04,06,48,9.20
2017,06,04,06,49,9.20
2017,06,04,06,50,9.20
2017,06,04,06,51,9.20
2017,06,04,06,52,9.20
2017,06,04,06,53,9.20
2017,06,04,06,54,9.20
2017,06,04,06,55,9.10
2017,06,04,06,56,9.10
2017,06,04,06,57,9.10
2017,06,04,06,58,9.10
2017,06,04,06,59,9.10
2017,06,04,07,00,9.10
2017,06,04,07,01,9.10
2017,06,04,07,02,9.10
2017,06,04,07,03,9.20
2017,06,04,07,04,9.20
2017,06,04,07,05,9.20
2017,06,04,07,06,9.20
2017,06,04,07,07,9.20
2017,06,04,07,08,9.20
2017,06,04,07,09,9.20
2017,06,04,07,10,9.20
2017,06,04,07,11,9.30
2017,06,04,07,12,9.30
2017,06,04,07,13,9.30
2017,06,04,07,14,9.30
2017,06,04,07,15,9.30
2017,06,04,07,16,9.30
2017,06,04,07,17,9.30
2017,06,04,07,18,9.30
2017,06,04,07,19,9.40
2017,06,04,07,20,9.40
2017,06,04,07,21,9.40
2017,06,04,07,22,9.40
2017,06,04,07,23,9.40
2017,06,04,07,24,9.50
2017,06,04,07,25,9.50
2017,06,04,07,26,9.60
2017,06,04,07,27,9.60
2017,06,04,07,28,9.60
2017,06,04,07,29,9.70
2017,06,04,07,30,9.70
2017,06,04,07,31,9.80
2017,06,04,07,32,9.80
2017,06,04,07,33,9.80
2017,06,04,07,34,9.90
2017,06,04,07,35,9.90
2017,06,04,07,36,9.90
2017,06,04,07,37,9.90
2017,06,04,07,38,9.90
2017,06,04,07,39,9.90
2017,06,04,07,40,9.90
2017,06,04,07,41,10.00
2017,06,04,07,42,10.00
2017,06,04,07,43,10.00
2017,06,04,07,44,10.10
2017,06,04,07,45,10.10
2017,06,04,07,46,10.10
2017,06,04,07,47,10.10
2017,06,04,07,48,10.20
2017,06,04,07,49,10.20
2017,06,04,07,50,10.20
2017,06,04,07,51,10.20
2017,06,04,07,52,10.30
2017,06,04,07,53,10.30
2017,06,04,07,54,10.30
2017,06,04,07,55,10.30
2017,06,04,07,56,10.30
2017,06,04,07,57,10.40
2017,06,04,07,58,10.40
2017,06,04,07,59,10.40
2017,06,04,08,00,10.40
2017,06,04,08,01,10.40
2017,06,04,08,02,10.50
2017,06,04,08,03,10.50
2017,06,04,08,04,10.50
2017,06,04,08,05,10.50
2017,06,04,08,06,10.50
2017,06,04,08,07,10.60
2017,06,04,08,08,10.60
2017,06,04,08,09,10.60
2017,06,04,08,10,10.70
2017,06,04,08,11,10.70
2017,06,04,08,12,10.70
2017,06,04,08,13,10.70
2017,06,04,08,14,10.80
2017,06,04,08,15,10.80
2017,06,04,08,16,10.80
2017,06,04,08,17,10.90
2017,06,04,08,18,10.90
2017,06,04,08,19,11.00
2017,06,04,08,20,11.00
2017,06,04,08,21,11.10
2017,06,04,08,22,11.10
2017,06,04,08,23,11.10
2017,06,04,08,24,11.10
2017,06,04,08,25,11.20
2017,06,04,08,26,11.20
2017,06,04,08,27,11.20
2017,06,04,08,28,11.20
2017,06,04,08,29,11.30
2017,06,04,08,30,11.30
2017,06,04,08,31,11.30
2017,06,04,08,32,11.40
2017,06,04,08,33,11.40
2017,06,04,08,34,11.40
2017,06,04,08,35,11.50
2017,06,04,08,36,11.50
2017,06,04,08,37,11.60
2017,06,04,08,38,11.60
2017,06,04,08,39,11.70
2017,06,04,08,40,11.70
2017,06,04,08,41,11.70
2017,06,04,08,42,11.80
2017,06,04,08,43,11.80
2017,06,04,08,44,11.90
2017,06,04,08,45,11.90
2017,06,04,08,46,11.90
2017,06,04,08,47,12.00
2017,06,04,08,48,12.10
2017,06,04,08,49,12.10
2017,06,04,08,50,12.10
2017,06,04,08,51,12.20
2017,06,04,08,52,12.20
2017,06,04,08,53,12.30
2017,06,04,08,54,12.30
2017,06,04,08,55,12.30
2017,06,04,08,56,12.40
2017,06,04,08,57,12.50
2017,06,04,08,58,12.50
2017,06,04,08,59,12.60
2017,06,04,09,00,12.60
2017,06,04,09,01,12.60
2017,06,04,09,02,12.60
2017,06,04,09,03,12.60
2017,06,04,09,04,12.60
2017,06,04,09,05,12.60
2017,06,04,09,06,12.60
2017,06,04,09,07,12.60
2017,06,04,09,08,12.60
2017,06,04,09,09,12.60
2017,06,04,09,10,12.60
2017,06,04,09,11,12.60
2017,06,04,09,12,12.60
2017,06,04,09,13,12.70
2017,06,04,09,14,12.70
2017,06,04,09,15,12.80
2017,06,04,09,16,12.90
2017,06,04,09,17,12.90
2017,06,04,09,18,13.00
2017,06,04,09,19,13.00
2017,06,04,09,20,13.10
2017,06,04,09,21,13.10
2017,06,04,09,22,13.10
2017,06,04,09,23,13.10
2017,06,04,09,24,13.20
2017,06,04,09,25,13.30
2017,06,04,09,26,13.40
2017,06,04,09,27,13.50
2017,06,04,09,28,13.60
2017,06,04,09,29,13.70
2017,06,04,09,30,13.80
2017,06,04,09,31,13.80
2017,06,04,09,32,13.80
2017,06,04,09,33,13.90
2017,06,04,09,34,13.90
2017,06,04,09,35,14.00
2017,06,04,09,36,14.00
2017,06,04,09,37,14.00
2017,06,04,09,38,14.10
2017,06,04,09,39,14.10
2017,06,04,09,40,14.20
2017,06,04,09,41,14.20
2017,06,04,09,42,14.30
2017,06,04,09,43,14.30
2017,06,04,09,44,14.40
2017,06,04,09,45,14.40
2017,06,04,09,46,14.40
2017,06,04,09,47,14.40
2017,06,04,09,48,14.30
2017,06,04,09,49,14.30
2017,06,04,09,50,14.20
2017,06,04,09,51,14.20
2017,06,04,09,52,14.20
2017,06,04,09,53,14.30
2017,06,04,09,54,14.30
2017,06,04,09,55,14.40
2017,06,04,09,56,14.40
2017,06,04,09,57,14.40
2017,06,04,09,58,14.50
2017,06,04,09,59,14.50
2017,06,04,10,00,14.60
2017,06,04,10,01,14.60
2017,06,04,10,02,14.50
2017,06,04,10,03,14.50
2017,06,04,10,04,14.40
2017,06,04,10,05,14.40
2017,06,04,10,06,14.30
2017,06,04,10,07,14.20
2017,06,04,10,08,14.20
2017,06,04,10,09,14.10
2017,06,04,10,10,14.00
2017,06,04,10,11,14.00
2017,06,04,10,12,14.00
2017,06,04,10,13,14.00
2017,06,04,10,14,14.00
2017,06,04,10,15,14.00
2017,06,04,10,16,14.10
2017,06,04,10,17,14.10
2017,06,04,10,18,14.10
2017,06,04,10,19,14.10
2017,06,04,10,20,14.10
2017,06,04,10,21,14.10
2017,06,04,10,22,14.10
2017,06,04,10,23,14.10
2017,06,04,10,24,14.10
2017,06,04,10,25,14.20
2017,06,04,10,26,14.20
2017,06,04,10,27,14.30
2017,06,04,10,28,14.30
2017,06,04,10,29,14.40
2017,06,04,10,30,14.50
2017,06,04,10,31,14.50
2017,06,04,10,32,14.50
2017,06,04,10,33,14.60
2017,06,04,10,34,14.60
2017,06,04,10,35,14.60
2017,06,04,10,36,14.70
2017,06,04,10,37,14.70
2017,06,04,10,38,14.70
2017,06,04,10,39,14.70
2017,06,04,10,40,14.70
2017,06,04,10,41,14.70
2017,06,04,10,42,14.70
2017,06,04,10,43,14.70
2017,06,04,10,44,14.70
2017,06,04,10,45,14.70
2017,06,04,10,46,14.70
2017,06,04,10,47,14.70
2017,06,04,10,48,14.70
2017,06,04,10,49,14.70
2017,06,04,10,50,14.60
2017,06,04,10,51,14.60
2017,06,04,10,52,14.50
2017,06,04,10,53,14.50
2017,06,04,10,54,14.40
2017,06,04,10,55,14.40
2017,06,04,10,56,14.40
2017,06,04,10,57,14.40
2017,06,04,10,58,14.40
2017,06,04,10,59,14.40
2017,06,04,11,00,14.40
2017,06,04,11,01,14.30
2017,06,04,11,02,14.30
2017,06,04,11,03,14.30
2017,06,04,11,04,14.30
2017,06,04,11,05,14.30
2017,06,04,11,06,14.30
2017,06,04,11,07,14.40
2017,06,04,11,08,14.40
2017,06,04,11,09,14.40
2017,06,04,11,10,14.50
2017,06,04,11,11,14.60
2017,06,04,11,12,14.70
2017,06,04,11,13,14.80
2017,06,04,11,14,14.90
2017,06,04,11,15,15.00
2017,06,04,11,16,15.10
2017,06,04,11,17,15.20
2017,06,04,11,18,15.20
2017,06,04,11,19,15.30
2017,06,04,11,20,15.30
2017,06,04,11,21,15.30
2017,06,04,11,22,15.20
2017,06,04,11,23,15.20
2017,06,04,11,24,15.20
2017,06,04,11,25,15.20
2017,06,04,11,26,15.20
2017,06,04,11,27,15.20
2017,06,04,11,28,15.20
2017,06,04,11,29,15.20
2017,06,04,11,30,15.20
2017,06,04,11,31,15.20
2017,06,04,11,32,15.20
2017,06,04,11,33,15.30
2017,06,04,11,34,15.30
2017,06,04,11,35,15.30
2017,06,04,11,36,15.30
2017,06,04,11,37,15.40
2017,06,04,11,38,15.40
2017,06,04,11,39,15.40
2017,06,04,11,40,15.50
2017,06,04,11,41,15.50
2017,06,04,11,42,15.50
2017,06,04,11,43,15.50
2017,06,04,11,44,15.50
2017,06,04,11,45,15.40
2017,06,04,11,46,15.40
2017,06,04,11,47,15.40
2017,06,04,11,48,15.40
2017,06,04,11,49,15.40
2017,06,04,11,50,15.40
2017,06,04,11,51,15.50
2017,06,04,11,52,15.50
2017,06,04,11,53,15.60
2017,06,04,11,54,15.60
2017,06,04,11,55,15.70
2017,06,04,11,56,15.70
2017,06,04,11,57,15.70
2017,06,04,11,58,15.70
2017,06,04,11,59,15.70
2017,06,04,12,00,15.70
2017,06,04,12,01,15.70
2017,06,04,12,02,15.70
2017,06,04,12,03,15.80
2017,06,04,12,04,15.80
2017,06,04,12,05,15.80
2017,06,04,12,06,15.90
2017,06,04,12,07,16.00
2017,06,04,12,08,16.10
2017,06,04,12,09,16.20
2017,06,04,12,10,16.20
2017,06,04,12,11,16.20
2017,06,04,12,12,16.10
2017,06,04,12,13,16.10
2017,06,04,12,14,16.10
2017,06,04,12,15,16.10
2017,06,04,12,16,16.10
2017,06,04,12,17,16.10
2017,06,04,12,18,16.10
2017,06,04,12,19,16.10
2017,06,04,12,20,16.10
2017,06,04,12,21,16.20
2017,06,04,12,22,16.30
2017,06,04,12,23,16.40
2017,06,04,12,24,16.50
2017,06,04,12,25,16.60
2017,06,04,12,26,16.70
2017,06,04,12,27,16.80
2017,06,04,12,28,16.80
2017,06,04,12,29,16.80
2017,06,04,12,30,16.80
2017,06,04,12,31,16.80
2017,06,04,12,32,16.80
2017,06,04,12,33,16.80
2017,06,04,12,34,16.70
2017,06,04,12,35,16.70
2017,06,04,12,36,16.70
2017,06,04,12,37,16.70
2017,06,04,12,38,16.70
2017,06,04,12,39,16.60
2017,06,04,12,40,16.60
2017,06,04,12,41,16.60
2017,06,04,12,42,16.70
2017,06,04,12,43,16.80
2017,06,04,12,44,16.80
2017,06,04,12,45,16.90
2017,06,04,12,46,16.90
2017,06,04,12,47,16.90
2017,06,04,12,48,16.80
2017,06,04,12,49,16.80
2017,06,04,12,50,16.80
2017,06,04,12,51,16.80
2017,06,04,12,52,16.90
2017,06,04,12,53,16.80
2017,06,04,12,54,16.80
2017,06,04,12,55,16.70
2017,06,04,12,56,16.60
2017,06,04,12,57,16.40
2017,06,04,12,58,16.50
2017,06,04,12,59,16.60
2017,06,04,13,00,16.80
2017,06,04,13,01,16.90
2017,06,04,13,02,17.00
2017,06,04,13,03,17.00
2017,06,04,13,04,16.90
2017,06,04,13,05,17.00
2017,06,04,13,06,17.10
2017,06,04,13,07,17.30
2017,06,04,13,08,17.40
2017,06,04,13,09,17.60
2017,06,04,13,10,17.70
2017,06,04,13,11,17.70
2017,06,04,13,12,17.60
2017,06,04,13,13,17.50
2017,06,04,13,14,17.50
2017,06,04,13,15,17.40
2017,06,04,13,16,17.40
2017,06,04,13,17,17.50
2017,06,04,13,18,17.50
2017,06,04,13,19,17.60
2017,06,04,13,20,17.60
2017,06,04,13,21,17.70
2017,06,04,13,22,17.80
2017,06,04,13,23,18.00
2017,06,04,13,24,18.10
2017,06,04,13,25,18.30
2017,06,04,13,26,18.40
2017,06,04,13,27,18.50
2017,06,04,13,28,18.60
2017,06,04,13,29,18.70
2017,06,04,13,30,18.70
2017,06,04,13,31,18.60
2017,06,04,13,32,18.50
2017,06,04,13,33,18.40
2017,06,04,13,34,18.40
2017,06,04,13,35,18.40
2017,06,04,13,36,18.40
2017,06,04,13,37,18.40
2017,06,04,13,38,18.50
2017,06,04,13,39,18.60
2017,06,04,13,40,18.60
2017,06,04,13,41,18.60
2017,06,04,13,42,18.60
2017,06,04,13,43,18.60
2017,06,04,13,44,18.60
2017,06,04,13,45,18.50
2017,06,04,13,46,18.40
2017,06,04,13,47,18.40
2017,06,04,13,48,18.50
2017,06,04,13,49,18.50
2017,06,04,13,50,18.50
2017,06,04,13,51,18.50
2017,06,04,13,52,18.50
2017,06,04,13,53,18.50
2017,06,04,13,54,18.40
2017,06,04,13,55,18.40
2017,06,04,13,56,18.40
2017,06,04,13,57,18.40
2017,06,04,13,58,18.40
2017,06,04,13,59,18.50
2017,06,04,14,00,18.60
2017,06,04,14,01,18.60
2017,06,04,14,02,18.50
2017,06,04,14,03,18.40
2017,06,04,14,04,18.50
2017,06,04,14,05,18.50
2017,06,04,14,06,18.60
2017,06,04,14,07,18.60
2017,06,04,14,08,18.60
2017,06,04,14,09,18.60
2017,06,04,14,10,18.60
2017,06,04,14,11,18.70
2017,06,04,14,12,18.60
2017,06,04,14,13,18.60
2017,06,04,14,14,18.60
2017,06,04,14,15,18.60
2017,06,04,14,16,18.70
2017,06,04,14,17,18.70
2017,06,04,14,18,18.80
2017,06,04,14,19,18.70
2017,06,04,14,20,18.60
2017,06,04,14,21,18.50
2017,06,04,14,22,18.40
2017,06,04,14,23,18.40
2017,06,04,14,24,18.50
2017,06,04,14,25,18.50
2017,06,04,14,26,18.60
2017,06,04,14,27,18.60
2017,06,04,14,28,18.70
2017,06,04,14,29,18.60
2017,06,04,14,30,18.60
2017,06,04,14,31,18.60
2017,06,04,14,32,18.60
2017,06,04,14,33,18.60
2017,06,04,14,34,18.60
2017,06,04,14,35,18.60
2017,06,04,14,36,18.60
2017,06,04,14,37,18.60
2017,06,04,14,38,18.70
2017,06,04,14,39,18.80
2017,06,04,14,40,19.00
2017,06,04,14,41,19.10
2017,06,04,14,42,19.20
2017,06,04,14,43,19.20
2017,06,04,14,44,19.20
2017,06,04,14,45,19.30
2017,06,04,14,46,19.30
2017,06,04,14,47,19.30
2017,06,04,14,48,19.20
2017,06,04,14,49,19.10
2017,06,04,14,50,19.10
2017,06,04,14,51,19.20
2017,06,04,14,52,19.30
2017,06,04,14,53,19.40
2017,06,04,14,54,19.50
2017,06,04,14,55,19.50
2017,06,04,14,56,19.50
2017,06,04,14,57,19.50
2017,06,04,14,58,19.50
2017,06,04,14,59,19.50
2017,06,04,15,00,19.40
2017,06,04,15,01,19.40
2017,06,04,15,02,19.30
2017,06,04,15,03,19.30
2017,06,04,15,04,19.20
2017,06,04,15,05,19.00
2017,06,04,15,06,18.90
2017,06,04,15,07,18.90
2017,06,04,15,08,18.90
2017,06,04,15,09,18.90
2017,06,04,15,10,18.80
2017,06,04,15,11,18.80
2017,06,04,15,12,18.90
2017,06,04,15,13,18.90
2017,06,04,15,14,18.80
2017,06,04,15,15,18.60
2017,06,04,15,16,18.60
2017,06,04,15,17,18.70
2017,06,04,15,18,18.70
2017,06,04,15,19,18.70
2017,06,04,15,20,18.80
2017,06,04,15,21,18.90
2017,06,04,15,22,18.90
2017,06,04,15,23,18.90
2017,06,04,15,24,18.80
2017,06,04,15,25,18.70
2017,06,04,15,26,18.70
2017,06,04,15,27,18.70
2017,06,04,15,28,18.70
2017,06,04,15,29,18.80
2017,06,04,15,30,18.80
2017,06,04,15,31,18.80
2017,06,04,15,32,18.90
2017,06,04,15,33,18.90
2017,06,04,15,34,18.90
2017,06,04,15,35,18.90
2017,06,04,15,36,18.80
2017,06,04,15,37,18.80
2017,06,04,15,38,18.80
2017,06,04,15,39,18.70
2017,06,04,15,40,18.70
2017,06,04,15,41,18.80
2017,06,04,15,42,18.80
2017,06,04,15,43,18.90
2017,06,04,15,44,18.80
2017,06,04,15,45,18.80
2017,06,04,15,46,18.80
2017,06,04,15,47,18.70
2017,06,04,15,48,18.80
2017,06,04,15,49,18.80
2017,06,04,15,50,19.00
2017,06,04,15,51,19.10
2017,06,04,15,52,19.10
2017,06,04,15,53,19.20
2017,06,04,15,54,19.20
2017,06,04,15,55,19.10
2017,06,04,15,56,19.10
2017,06,04,15,57,19.10
2017,06,04,15,58,19.10
2017,06,04,15,59,19.10
2017,06,04,16,00,19.10
2017,06,04,16,01,19.10
2017,06,04,16,02,19.10
2017,06,04,16,03,19.00
2017,06,04,16,04,18.90
2017,06,04,16,05,18.90
2017,06,04,16,06,18.80
2017,06,04,16,07,18.90
2017,06,04,16,08,18.80
2017,06,04,16,09,18.80
2017,06,04,16,10,18.90
2017,06,04,16,11,19.00
2017,06,04,16,12,19.00
2017,06,04,16,13,19.10
2017,06,04,16,14,19.00
2017,06,04,16,15,19.00
2017,06,04,16,16,18.90
2017,06,04,16,17,18.90
2017,06,04,16,18,18.90
2017,06,04,16,19,19.00
2017,06,04,16,20,19.00
2017,06,04,16,21,19.10
2017,06,04,16,22,19.20
2017,06,04,16,23,19.30
2017,06,04,16,24,19.30
2017,06,04,16,25,19.30
2017,06,04,16,26,19.30
2017,06,04,16,27,19.30
2017,06,04,16,28,19.40
2017,06,04,16,29,19.40
2017,06,04,16,30,19.30
2017,06,04,16,31,19.30
2017,06,04,16,32,19.30
2017,06,04,16,33,19.30
2017,06,04,16,34,19.20
2017,06,04,16,35,19.20
2017,06,04,16,36,19.10
2017,06,04,16,37,19.10
2017,06,04,16,38,19.10
2017,06,04,16,39,19.10
2017,06,04,16,40,19.00
2017,06,04,16,41,19.00
2017,06,04,16,42,18.90
2017,06,04,16,43,18.80
2017,06,04,16,44,18.90
2017,06,04,16,45,18.90
2017,06,04,16,46,18.90
2017,06,04,16,47,18.90
2017,06,04,16,48,18.90
2017,06,04,16,49,19.00
2017,06,04,16,50,19.10
2017,06,04,16,51,19.30
2017,06,04,16,52,19.40
2017,06,04,16,53,19.40
2017,06,04,16,54,19.30
2017,06,04,16,55,19.30
2017,06,04,16,56,19.40
2017,06,04,16,57,19.30
2017,06,04,16,58,19.40
2017,06,04,16,59,19.40
2017,06,04,17,00,19.40
2017,06,04,17,01,19.40
2017,06,04,17,02,19.30
2017,06,04,17,03,19.10
2017,06,04,17,04,19.00
2017,06,04,17,05,18.90
2017,06,04,17,06,19.00
2017,06,04,17,07,19.00
2017,06,04,17,08,18.90
2017,06,04,17,09,18.90
2017,06,04,17,10,19.00
2017,06,04,17,11,19.10
2017,06,04,17,12,19.10
2017,06,04,17,13,19.20
2017,06,04,17,14,19.20
2017,06,04,17,15,19.20
2017,06,04,17,16,19.20
2017,06,04,17,17,19.10
2017,06,04,17,18,19.10
2017,06,04,17,19,19.10
2017,06,04,17,20,19.20
2017,06,04,17,21,19.10
2017,06,04,17,22,19.10
2017,06,04,17,23,19.10
2017,06,04,17,24,19.20
2017,06,04,17,25,19.20
2017,06,04,17,26,19.20
2017,06,04,17,27,19.20
2017,06,04,17,28,19.10
2017,06,04,17,29,19.10
2017,06,04,17,30,19.00
2017,06,04,17,31,19.00
2017,06,04,17,32,19.00
2017,06,04,17,33,18.90
2017,06,04,17,34,18.90
2017,06,04,17,35,18.90
2017,06,04,17,36,18.90
2017,06,04,17,37,18.80